Home   Weather   Bath   Past weeks
Flag for United Kingdom

Past Weather in Bath, England, United Kingdom — Yesterday and Last 2 Weeks

Now
39 °F

Passing clouds.


Feels Like: 34 °F
Forecast: N/A
Wind: 7 mph from Southwest

Location: Bristol / Lulsgate

Current Time: Feb 26, 2020 at 8:18:58 pm

Latest Report: Feb 26, 2020 at 7:50 pm


Visibility: N/A

Pressure: 29.77 "Hg

Humidity: 75%

Dew Point: 32 °F

Location of BathLocation

Past Weather in Bath — Graph

°F

Bath Temperature Yesterday

Maximum temperature yesterday: 43 °F (at 12:20 am)
Minimum temperature yesterday: 36 °F (at 1:50 pm)
Average temperature yesterday: 39 °F

High & Low Weather Summary for the Past Weeks

 TemperatureHumidityPressure
High55 °F (Feb 16, 12:20 am)100% (Feb 13, 2:50 am)30.21 "Hg (Feb 13, 2:50 am)
Low34 °F (Feb 26, 1:50 am)61% (Feb 26, 2:20 pm)29.18 "Hg (Feb 16, 2:50 am)
Average44 °F87%29.82 "Hg
* Reported Feb 11 7:20 pm — Feb 26 7:20 pm, Bath. Weather by CustomWeather, © 2020

Note: Actual official high and low records may vary slightly from our data, if they occured in-between our weather recording intervals... More about our weather records

Bath Weather History for the Previous 24 Hours

Scroll right to see more
 ConditionsComfort  
Time TempWeatherWind HumidityBarometerVisibility
7:20 pm
Wed, Feb 26
37 °FPassing clouds.8 mph81%29.77 "HgN/A
6:50 pm37 °FPartly cloudy.8 mph81%29.77 "HgN/A
6:20 pm39 °FChilly.9 mph75%29.77 "HgN/A
5:50 pm39 °FChilly.13 mph75%29.77 "HgN/A
5:20 pm39 °FChilly.15 mph75%29.77 "HgN/A
4:50 pm41 °FQuite cool.13 mph76%29.77 "HgN/A
4:20 pm41 °FScattered clouds.17 mph76%29.80 "HgN/A
3:50 pm41 °FSprinkles. Passing clouds.17 mph70%29.80 "HgN/A
3:20 pm43 °FPassing clouds.18 mph71%29.77 "HgN/A
2:50 pm45 °FBroken clouds.17 mph61%29.77 "HgN/A
2:20 pm43 °FPartly sunny.17 mph61%29.77 "HgN/A
1:50 pm43 °FPartly sunny.18 mph66%29.77 "HgN/A
1:20 pm43 °FPartly sunny.17 mph66%29.77 "HgN/A
12:50 pm43 °FPartly sunny.17 mph71%29.77 "HgN/A
12:20 pm43 °FOvercast.16 mph71%29.77 "HgN/A
11:50 am41 °FMostly cloudy.18 mph76%29.74 "HgN/A
11:20 am41 °FMostly cloudy.17 mph76%29.74 "HgN/A
10:50 am41 °FMostly cloudy.18 mph76%29.74 "HgN/A
10:20 am41 °FBroken clouds.21 mph76%29.71 "HgN/A
9:50 am39 °FCloudy.20 mph81%29.71 "HgN/A
9:20 am39 °FOvercast.21 mph81%29.68 "HgN/A
8:50 am39 °FCloudy.18 mph81%29.68 "HgN/A
8:20 am37 °FMostly cloudy.16 mph87%29.68 "HgN/A
7:50 am37 °FMostly cloudy.20 mph87%29.65 "HgN/A
7:20 am37 °FOvercast.18 mph81%29.62 "HgN/A
6:20 am36 °FMostly cloudy.18 mph87%29.59 "HgN/A
5:50 am36 °FMostly cloudy.17 mph87%29.59 "HgN/A
5:20 am36 °FMostly cloudy.18 mph87%29.59 "HgN/A
4:50 am36 °FMostly cloudy.18 mph87%29.56 "HgN/A
4:20 am36 °FMostly cloudy.20 mph87%29.56 "HgN/A
3:50 am36 °FOvercast.14 mph87%29.53 "HgN/A
3:20 am36 °FMostly cloudy.9 mph87%29.53 "HgN/A
2:50 am36 °FMostly cloudy.12 mph87%29.53 "HgN/A
2:20 am34 °FPassing clouds.17 mph87%29.53 "HgN/A
1:50 am34 °FPassing clouds.15 mph87%29.50 "HgN/A
1:20 am36 °FPassing clouds.12 mph81%29.50 "HgN/A
12:50 am36 °FPassing clouds.20 mph81%29.50 "HgN/A
12:20 am36 °FPassing clouds.13 mph81%29.50 "HgN/A
11:50 pm
Tue, Feb 25
36 °FPassing clouds.18 mph81%29.50 "HgN/A
11:20 pm36 °FPassing clouds.20 mph81%29.50 "HgN/A
10:50 pm36 °FPassing clouds.21 mph81%29.50 "HgN/A
10:20 pm36 °FPassing clouds.20 mph81%29.47 "HgN/A
9:50 pm36 °FPassing clouds.20 mph81%29.47 "HgN/A
9:20 pm36 °FPassing clouds.22 mph81%29.47 "HgN/A
8:50 pm36 °FPassing clouds.20 mph87%29.47 "HgN/A
8:20 pm36 °FPassing clouds.14 mph93%29.47 "HgN/A
Weather by CustomWeather, © 2020

See weather overview

Advertising